Weather in Murmashi

Russia / Murmansk Oblast     68°48′54″N   32°48′44″E
temp.,
°C
wind,
m/s
gust,
m/s
humid.,
%
clouds,
%
prec.,
mm/h
press.,
hPa
HPBL,
m
26 september, sun
sun2600:00+3s229560 0.0 100631
03:00+3sw1195100 0.0 100810
06:00+3wsw119420 0.0 101010
09:00+5sw119089 0.0 101357
12:00+8sw248186 0.0 1015381
15:00+9sw258089 0.0 1016608
18:00+6ssw2593100 0.0 1018116
21:00+5s269579 0.0 1019123
27 september, mon
mon2700:00+6s3129098 0.0 1020378
03:00+8ssw41280100 0.0 1020553
06:00+7ssw4118380 0.0 1021430
09:00+7sw298797 0.0 1023301
12:00+11sw247369 0.0 1025329
15:00+13sw256949 0.0 1026455
18:00+9sw11904 0.0 102710
21:00+7ssw11955 0.0 102811
28 september, tue
tue2800:00+7ssw229589 0.0 102923
03:00+7ssw229573 0.0 102924
06:00+6ssw2294100 0.0 102928
09:00+8ssw258592 0.0 1029143
12:00+12sw3106262 0.0 1029427
15:00+13sw412615 0.0 1028710
18:00+11ssw4127213 0.0 1028522
21:00+10sw4147942 0.0 1028548
29 september, wed
wed2900:00+9sw51378100 0.0 1029529
03:00+8wsw5147634 0.0 1029500
06:00+6wsw4148177 0.0 1029445
09:00+7wsw3138012 0.0 1030472
12:00+10wsw511695 0.0 1030526
15:00+11wsw49689 0.0 1030581
18:00+8wsw23846 0.0 103048
21:00+6sw22935 0.0 103020
30 september, thu
thu3000:00+5sw239578 0.0 103156
03:00+4sw23965 0.0 103053
06:00+4sw229728 0.0 103020
09:00+5sw149460 0.0 1030124
12:00+9wsw36777 0.0 1030462
15:00+9wsw357419 0.0 1030600
18:00+5wsw239344 0.0 103065
21:00+4ssw22958 0.0 102927